This demonstration page uses our WeatherBlox Daily Observations layout. Learn more.

Left ArrowRight Arrow

Hourly Observations for April 12, 2020

Temp ( °F °C ) Dew Point ( °F °C ) Humidity (%) Winds ( mph kmh ) Pressure ( in mb ) Visibility ( mi km ) Precip ( " mm )
12:54 am 00:54 Clear 50 10 35 1.7 57 57 N 15 24 29.58 1002 7 11.26538 0 0
1:54 am 01:54 Hazy 48 8.9 34 1.1 58 58 N 16 26 29.57 1001 6 9.65604 0 0
2:29 am 02:29 Mostly Cloudy 49 9.4 34 1.1 56 56 N 17 28 29.62 1003 8 12.87472 0 0
2:54 am 02:54 Cloudy 48 8.9 33 0.6 56 56 N 22 35 29.57 1001 10 16.0934 0 0
3:54 am 03:54 Cloudy 47 8.3 31 -0.6 54 54 N 23 37 29.57 1002 10 16.0934 0 0
4:54 am 04:54 Cloudy with Nearby Thunderstorms 44 6.7 28 -2.2 53 53 N 26 43 29.6 1002 10 16.0934 0 0
5:06 am 05:06 Cloudy with Thunderstorms 43 6.1 28 -2.2 56 56 N 25 41 29.64 1004 10 16.0934 0 0
5:17 am 05:17 Cloudy 43 6.1 28 -2.2 56 56 N 25 41 29.64 1004 10 16.0934 0 0
5:54 am 05:54 Cloudy 41 5 29 -1.7 62 62 N 25 41 29.59 1002 10 16.0934 0.001 0.001
6:54 am 06:54 Cloudy with Light Rain 38 3.3 31 -0.6 76 76 N 28 44 29.63 1003 10 16.0934 0.001 0.001
7:28 am 07:28 Cloudy with Light Rain 37 2.8 32 0 82 82 N 22 35 29.72 1006 5 8.0467 0.001 0.001
7:47 am 07:47 Windy with Snow Likely 36 2.2 32 0 86 86 N 23 37 29.74 1007 3 4.82802 0.001 0.001
7:54 am 07:54 Windy with Snow Likely 36 2.2 33 0.6 89 89 N 20 31 29.69 1006 2.5 4.02335 0.001 0.001
8:10 am 08:10 Windy with Snow Likely 36 2.2 33 0.6 89 89 N 25 41 29.74 1007 1.75 2.816345 0.001 0.001
8:29 am 08:29 Windy with Snow Likely 35 1.7 32 0 89 89 N 23 37 29.74 1007 2 3.21868 0.001 0.001
8:54 am 08:54 Windy with Snow Likely 35 1.7 31 -0.6 85 85 N 25 41 29.72 1007 2 3.21868 0.001 0.001
9:08 am 09:08 Windy with Snow Likely 34 1.1 31 -0.6 89 89 N 25 41 29.77 1008 2.5 4.02335 0.001 0.001
9:26 am 09:26 Windy with Snow Likely 34 1.1 31 -0.6 89 89 N 23 37 29.77 1008 3 4.82802 0.001 0.001
9:54 am 09:54 Cloudy with Light Rain 33 0.6 30 -1.1 89 89 N 25 41 29.73 1007 5 8.0467 0.001 0.001
10:54 am 10:54 Cloudy 32 0 28 -2.2 85 85 N 31 50 29.76 1008 10 16.0934 0.001 0.001
11:54 am 11:54 Cloudy 32 0 28 -2.2 85 85 N 29 46 29.78 1009 8 12.87472 0.001 0.001
12:46 pm 12:46 Windy with Snow Likely 32 0 27 -2.8 82 82 N 32 52 29.84 1010 7 11.26538 0.001 0.001
12:54 pm 12:54 Windy with Snow Likely 32 0 27 -2.8 82 82 N 33 54 29.8 1009 7 11.26538 0.001 0.001
1:54 pm 13:54 Cloudy 32 0 26 -3.3 79 79 N 38 61 29.81 1010 10 16.0934 0.001 0.001
2:19 pm 14:19 Cloudy 32 0 26 -3.3 79 79 N 39 63 29.87 1011 10 16.0934 0 0
2:54 pm 14:54 Cloudy 32 0 25 -3.9 75 75 N 37 59 29.86 1011 10 16.0934 0 0
3:54 pm 15:54 Cloudy 32 0 24 -4.4 73 73 N 38 61 29.89 1012 10 16.0934 0 0
4:54 pm 16:54 Cloudy with Light Wintry Mix 32 0 23 -5 69 69 N 37 59 29.92 1013 9 14.48406 0.001 0.001
5:54 pm 17:54 Windy with Snow Likely 33 0.6 25 -3.9 72 72 N 35 56 29.96 1015 8 12.87472 0.001 0.001
6:31 pm 18:31 Mostly Cloudy 33 0.6 23 -5 66 66 N 36 57 30.01 1016 10 16.0934 0.001 0.001
6:54 pm 18:54 Mostly Cloudy 33 0.6 23 -5 66 66 NNW 31 50 29.99 1016 10 16.0934 0.001 0.001
7:10 pm 19:10 Cloudy 32 0 25 -3.9 75 75 N 26 43 30.03 1017 10 16.0934 0 0
7:54 pm 19:54 Mostly Cloudy 33 0.6 22 -5.6 64 64 N 24 39 30.01 1016 10 16.0934 0 0
8:54 pm 20:54 Clear 32 0 21 -6.1 64 64 N 23 37 30.04 1017 10 16.0934 0 0
9:54 pm 21:54 Clear 31 -0.6 17 -8.3 56 56 NNW 24 39 30.08 1019 10 16.0934 0 0
10:54 pm 22:54 Clear 30 -1.1 19 -7.2 64 64 NNW 20 31 30.1 1019 10 16.0934 0 0
11:54 pm 23:54 Clear 29 -1.7 19 -7.2 66 66 N 17 28 30.1 1019 10 16.0934 0 0

Powered by AerisWeather